Find Starlink 31323

NORAD ID: 58882 Int'l Des: 2024-020 Owner: SPXS Country: US Constellation: starlink operational
LEOCIRCULAR

現在のビュー

3D地球を読み込み中...

About Starlink 31323

Starlink 31323 (NORAD 58882) is a starlink constellation satellite (v2 mini) launched Jan 29, 2024 by SPXS of US. It operates in LEO, CIRCULAR orbit with a mass of 730.00 kg.

Starlink 31323について

説明を読み込み中...

次回通過

Passes for default location (London). Set your location on the main map for personalized predictions.

高度履歴

Loading altitude history...

軌道要素

1 58882U 24020G 26171.40795293 .00009125 00000-0 28102-3 0 9998
2 58882 53.1593 204.1798 0000828 55.4307 304.6774 15.34383973133815
Epoch: Jun 20, 2026 • Age: 43 hours

現在のステータス

高度 463.2 km
速度 7.64 km/s
衛星直下点 20.12°N, 19.56°E
打ち上げ日 Jan 29, 2024
運用期間 2.3 years
タイプ internet

技術仕様

分類 Payload
質量 730.00 kg
乾燥質量 700.00 kg
総質量 730.00 kg
長さ 0.30 m
直径 4.10 m
スパン 29.00 m
形状 Box + pan
製造者 SPXS
バスタイプ Starlink V2M
フェーズステータス In Orbit
所有者/国 SPXS/US

Most Searched